Temp
26 25 24 24 25 26 26 25 25 26 26 26 25 24 24 23 24 26 27 27 28 27 24 23 22 20 21 21 21 20 20 20 19 19 18 18 18 18 18 19 18 19 19 18 18 18 18 19 20 19 19 19 18 18 18 18 18 18 18 18 17 17 18 18 18 19 19 19 19 19 19 19 19 19 19 19 19 19 19 19 19 19 19 19 19 20
26 24 24 25 26 26 26 26 26 26 27 27 25 24 24 24 24 26 27 27 28 27 24 22 21 20 21 21 21 20 20 19 19 19 19 19 19 19 19 19 19 19 19 18 18 17 18 18 19 19 19 19 18 18 18 18 18 18 18 18 18 18 18 18 18 19 19 19 19 19 19 20 20 20 19 19 19 19 19 19 19 19 19 19 19 20
24 24 25 26 26 26 27 27 26 26 27 26 25 24 23 24 25 25 26 27 28 27 24 22 21 21 21 21 21 20 20 20 20 19 19 19 19 19 19 19 19 19 18 18 17 17 17 17 18 19 20 19 19 18 18 18 18 18 18 18 18 18 18 18 18 19 19 19 20 20 20 20 20 20 20 20 19 19 19 19 19 19 19 19 19 20
22 24 27 27 26 27 27 27 26 26 26 25 25 23 22 23 24 23 25 26 27 26 25 24 23 21 21 21 21 21 21 20 20 20 20 19 19 19 20 19 19 19 18 18 18 17 17 17 17 18 19 20 19 18 18 18 18 18 18 18 18 18 18 18 18 19 19 19 19 19 19 19 19 19 19 19 19 19 19 19 19 19 19 19 20 20
24 26 27 27 27 27 27 27 26 25 24 25 24 23 23 24 23 23 24 25 25 25 25 25 23 21 21 21 21 21 21 20 20 20 20 20 19 19 20 20 19 19 18 18 18 18 17 17 18 18 18 19 19 19 19 19 18 18 18 18 18 18 18 18 18 18 19 19 19 19 19 18 18 18 19 19 19 19 19 19 19 19 19 20 20 20
25 26 27 27 27 27 26 26 25 24 23 23 24 24 24 24 24 24 25 24 23 23 24 24 22 21 21 21 20 21 20 19 20 19 20 20 18 16 18 19 19 19 18 18 18 18 17 17 18 18 18 19 19 19 19 19 19 18 18 18 18 18 18 18 18 18 18 18 18 18 18 18 18 18 18 19 19 19 19 19 20 19 19 19 19 19
26 27 27 27 27 26 26 25 25 25 23 22 23 25 25 25 24 24 24 23 21 21 24 24 22 21 21 21 20 20 20 19 19 19 20 20 18 16 17 19 19 19 18 18 18 18 18 17 17 18 18 19 19 19 19 19 19 19 19 19 19 18 18 18 18 18 18 18 18 18 18 17 17 17 18 19 19 19 19 19 20 20 19 19 19 19
26 27 26 26 26 26 25 24 25 25 23 22 24 25 25 25 24 24 23 22 22 22 23 24 23 21 21 21 20 20 19 19 19 19 19 19 18 17 18 19 19 19 18 18 18 18 18 18 18 18 19 19 19 19 20 19 19 19 19 19 19 19 18 18 18 18 18 18 18 18 18 17 17 18 18 19 19 19 19 19 19 19 19 19 19 19
26 26 26 26 26 25 25 25 25 25 24 24 25 25 25 25 25 24 24 22 22 22 21 22 22 21 20 20 20 20 19 19 19 19 19 19 19 18 19 19 19 19 19 19 19 19 18 18 18 19 19 19 19 20 20 20 19 19 19 19 19 19 19 19 18 18 18 18 18 18 18 18 18 18 18 19 19 19 19 19 19 19 19 19 19 19
26 26 27 26 26 25 25 25 26 26 25 25 26 25 25 25 24 24 24 22 22 21 20 21 22 21 20 19 19 20 19 19 19 19 19 19 19 19 19 19 19 19 19 19 19 18 18 19 19 19 19 19 19 20 20 20 20 19 19 19 19 19 19 19 19 19 18 18 18 18 18 18 18 18 18 18 19 19 19 19 19 19 19 19 19 19
26 26 27 26 26 26 26 26 26 26 25 25 25 25 25 24 24 24 23 22 21 20 20 21 21 21 20 19 19 19 20 20 19 19 19 19 19 19 19 19 19 18 18 18 18 18 18 19 19 19 19 19 19 20 20 19 19 19 19 19 19 19 19 19 19 19 19 18 18 18 18 18 18 18 18 19 19 19 19 19 19 19 19 19 19 19
25 26 26 27 27 27 26 26 26 26 25 25 25 24 23 22 22 22 21 21 20 20 20 21 21 21 20 20 20 20 21 20 19 19 19 19 19 19 19 19 18 18 18 18 18 18 18 18 18 19 19 19 19 19 19 19 19 19 19 19 19 19 19 19 19 19 19 19 19 19 19 18 18 18 19 19 19 19 19 19 19 19 19 19 19 18
25 26 25 26 27 26 26 25 25 25 25 25 24 22 21 20 20 20 20 20 20 20 20 21 21 21 20 22 22 22 22 21 20 20 20 19 19 19 19 19 18 18 18 18 18 18 18 17 18 18 18 18 19 19 19 19 19 19 19 19 19 19 19 19 19 19 19 19 19 19 19 19 19 19 19 19 19 19 19 19 19 19 19 19 19 19
23 25 25 25 26 26 26 24 23 23 24 24 23 21 20 20 20 20 20 19 20 20 20 21 21 20 20 22 23 23 23 21 20 20 20 20 20 19 19 19 18 18 18 18 18 18 18 17 18 18 18 18 18 19 19 19 19 19 19 19 19 19 19 19 19 19 19 19 19 19 19 19 19 19 19 18 18 18 18 18 18 18 18 19 19 19
21 22 24 25 25 25 26 25 24 24 24 24 24 22 21 20 20 20 20 20 20 20 20 20 21 20 20 22 23 23 22 20 20 20 20 20 20 20 19 19 18 18 18 18 18 18 18 17 18 18 18 18 18 19 19 19 19 19 19 19 19 19 19 19 19 19 19 19 19 19 19 19 19 19 18 18 18 18 18 18 18 18 18 18 18 18
21 21 24 25 25 26 26 26 26 25 23 23 23 22 21 21 21 20 20 20 20 20 20 20 20 20 21 22 22 22 22 20 19 19 20 20 20 19 19 19 18 18 18 18 18 18 18 17 18 18 18 18 18 19 19 19 19 19 19 19 19 19 19 19 19 19 19 19 19 19 19 19 19 18 18 18 18 18 18 18 18 18 18 18 18 18
21 21 24 25 24 26 26 26 26 25 23 22 22 22 22 22 22 21 19 19 19 19 20 20 20 21 21 22 22 22 22 21 19 19 19 19 19 19 19 19 19 18 18 18 18 18 17 17 17 18 18 18 18 18 18 19 19 19 19 19 19 20 19 19 19 19 19 19 19 19 19 18 18 18 18 18 18 18 18 18 18 18 18 18 18 18
22 21 23 24 24 25 25 25 26 25 24 23 22 23 23 22 22 21 20 19 19 19 19 19 20 20 20 21 22 23 23 22 20 20 19 19 19 19 19 19 19 19 18 18 18 18 17 17 17 17 18 18 18 18 19 19 19 19 19 19 20 20 20 20 19 19 19 19 19 19 18 18 18 18 18 18 18 17 17 17 17 17 18 18 18 17
23 21 22 24 24 25 25 25 24 24 25 24 23 23 23 21 21 20 20 20 19 18 19 19 20 20 20 21 22 22 23 23 22 21 20 19 19 19 19 19 19 19 18 18 18 18 17 17 17 17 17 18 18 18 19 19 19 19 19 19 20 20 20 20 19 19 19 19 19 19 18 18 18 18 18 18 17 17 17 17 17 17 17 17 17 17
23 21 21 23 24 24 24 23 22 23 24 24 23 23 23 21 21 20 20 20 19 19 19 19 20 20 20 21 22 23 23 23 23 22 22 20 19 19 19 19 19 19 18 18 18 18 17 17 17 17 17 18 18 18 19 19 19 19 19 19 20 20 20 19 19 19 19 19 19 18 18 18 18 18 18 17 17 17 17 17 17 17 17 17 17 17
23 22 21 22 22 22 23 22 22 23 23 23 22 22 22 21 21 20 20 19 20 20 19 18 19 20 21 22 22 23 23 23 23 23 23 22 20 19 19 19 19 19 19 19 18 18 17 17 17 18 17 17 18 18 18 19 19 19 19 19 19 20 20 19 19 19 19 19 19 18 18 18 18 18 17 17 17 17 17 17 17 17 17 17 17 17
23 22 21 21 21 21 22 24 24 24 23 23 22 22 22 21 21 20 20 19 20 20 19 19 19 20 22 22 23 24 24 24 23 23 24 23 21 20 20 19 19 19 19 19 18 18 17 16 16 17 17 17 17 17 18 18 19 19 19 19 19 19 19 19 19 19 19 19 18 18 18 18 18 17 17 17 17 17 17 17 17 16 16 16 16 16
23 22 21 21 21 21 22 23 23 23 24 23 23 23 22 21 21 20 20 20 20 20 19 19 19 20 22 23 23 24 23 24 24 23 24 23 22 21 20 19 19 19 19 19 18 18 16 16 16 16 16 16 16 17 18 18 18 18 19 19 19 19 19 19 19 19 19 19 18 18 18 18 18 17 17 17 17 17 17 16 16 16 16 16 16 16
23 22 21 20 21 21 22 23 22 22 23 23 22 22 22 22 22 21 20 20 20 20 20 19 18 20 22 22 22 22 22 23 23 23 23 22 21 21 21 20 20 19 19 18 18 16 15 15 15 15 15 15 16 16 17 17 18 18 18 19 19 19 19 19 19 18 19 19 19 18 18 18 17 17 17 17 17 17 17 16 16 16 16 16 16 16
22 21 20 20 20 20 21 22 22 22 22 21 21 22 22 22 22 21 20 20 20 20 20 19 19 20 22 21 21 21 22 23 23 23 23 22 21 21 20 20 20 19 18 18 17 16 15 15 15 15 15 15 15 16 16 16 17 17 18 18 18 19 18 18 17 17 18 19 19 18 18 18 17 17 17 17 17 17 16 16 16 16 16 16 16 16
22 21 21 20 19 19 19 20 20 21 21 21 21 21 22 21 21 21 20 20 19 19 19 19 19 20 22 21 21 22 23 23 23 23 22 22 22 21 20 19 19 19 18 18 17 16 15 15 14 15 15 15 15 16 15 15 15 16 17 17 17 19 18 17 17 16 17 19 19 18 18 18 17 17 17 17 17 17 16 16 16 16 16 16 15 15
22 21 21 21 20 20 20 20 20 20 20 20 20 21 21 21 21 21 20 19 20 19 19 20 20 20 21 22 22 22 22 23 23 23 23 23 22 21 20 18 18 19 18 17 16 16 16 15 14 14 15 15 15 15 15 15 15 16 16 17 18 19 18 17 16 16 17 19 19 18 18 18 17 17 17 17 17 16 16 16 16 16 16 15 15 15
21 20 20 21 21 21 21 21 21 20 20 20 20 20 21 21 21 20 19 20 20 19 19 20 20 20 20 22 22 21 21 22 23 23 24 23 22 21 20 18 17 18 17 16 16 16 16 15 15 14 14 15 15 15 15 15 15 16 17 17 18 18 17 16 15 16 18 19 18 18 18 17 17 17 17 17 17 16 16 16 16 15 15 15 15 15
20 20 20 20 20 20 20 20 20 20 20 20 20 20 20 20 20 20 20 20 20 19 19 20 20 20 21 22 22 22 22 22 23 24 23 22 21 20 19 19 19 18 17 16 16 16 16 16 15 14 14 14 15 15 15 15 16 16 17 18 18 17 17 16 15 17 19 19 18 18 18 17 17 17 17 17 16 16 16 16 15 15 15 15 15 15
20 20 20 20 20 20 19 19 19 19 19 19 19 20 20 20 19 19 19 20 20 19 20 20 20 20 21 21 22 22 22 22 22 22 21 21 21 20 19 20 20 18 17 17 16 16 16 16 16 15 14 15 15 15 15 15 16 16 17 17 18 17 17 16 16 18 19 18 18 18 17 17 17 17 17 17 16 16 16 16 15 15 15 15 14 14
20 19 19 19 19 19 19 20 19 19 18 18 18 19 19 19 18 18 19 19 19 19 19 19 19 19 20 20 21 22 22 21 20 21 21 21 21 20 20 19 19 18 18 17 16 16 16 16 16 15 14 15 15 15 15 16 17 17 17 17 18 18 18 18 18 19 19 18 18 18 17 17 17 17 17 16 16 16 16 16 15 15 15 15 14 14
20 19 19 19 18 18 19 19 18 18 17 17 17 18 18 18 19 19 19 19 19 19 19 19 18 19 20 20 20 21 21 21 21 21 21 21 21 20 20 20 19 18 18 18 17 16 16 16 16 15 15 15 15 16 16 16 17 17 17 18 18 19 19 18 18 19 19 19 18 18 18 17 17 17 17 16 16 16 16 16 15 15 15 15 14 14
19 19 18 18 17 17 18 18 18 17 17 17 18 19 19 19 19 19 19 19 20 20 20 19 19 20 21 20 20 21 22 22 22 22 22 23 22 20 20 20 20 19 19 18 18 17 17 16 16 15 15 16 16 16 17 17 17 17 18 18 19 19 19 18 18 19 18 18 18 18 18 17 17 17 16 16 16 16 16 15 15 15 15 14 14 14
18 19 18 17 17 16 17 18 18 17 16 17 19 20 20 20 20 19 19 20 20 20 20 20 20 20 20 20 20 21 22 22 22 23 23 23 22 21 21 21 21 20 19 19 18 18 17 16 16 16 16 16 17 17 18 18 18 18 18 19 19 19 18 18 18 18 18 18 18 18 17 17 17 17 16 16 16 16 16 15 15 15 15 14 14 14
18 18 17 16 16 16 16 17 16 16 17 18 19 20 19 19 20 19 19 20 20 19 19 20 20 21 20 20 20 21 21 22 22 22 22 22 22 23 23 22 21 20 19 19 19 18 17 16 16 16 16 17 17 17 17 17 18 18 18 19 19 19 18 18 18 18 18 18 18 18 17 17 17 17 16 16 16 16 15 15 15 15 15 14 14 14
18 17 16 16 16 15 15 15 16 16 17 18 18 19 19 19 19 19 19 20 20 20 20 20 21 21 20 20 20 20 20 21 21 21 21 21 21 22 23 23 22 22 21 19 19 19 17 16 17 17 17 17 17 17 17 18 18 18 18 19 19 19 18 17 17 18 18 18 18 18 17 17 17 17 16 16 16 15 15 15 15 15 15 14 14 14
18 16 16 16 15 15 14 14 15 16 16 17 18 19 19 19 19 19 19 20 21 21 20 20 21 21 20 20 21 21 19 19 20 21 21 20 20 21 22 23 22 21 20 18 18 19 20 19 19 19 18 18 17 17 18 18 18 18 18 19 19 18 17 17 17 18 18 18 18 18 17 17 17 16 16 16 16 15 15 15 15 15 14 14 14 14
18 17 16 16 15 15 14 14 15 15 15 17 18 19 19 18 18 19 19 19 21 21 21 20 21 20 19 19 20 20 19 19 21 21 21 20 20 20 21 21 19 17 17 18 18 20 22 21 21 21 20 18 17 18 18 18 18 18 18 18 18 17 16 17 17 18 18 18 18 18 17 17 17 16 16 16 16 15 15 15 15 14 14 14 14 14
17 15 15 15 15 14 14 14 15 15 15 17 19 19 18 18 18 18 18 19 21 22 21 20 20 20 19 19 20 20 20 20 20 21 20 20 20 21 21 21 19 17 17 19 20 20 21 22 22 22 20 18 18 18 18 18 18 18 18 18 17 16 16 17 17 18 18 18 18 18 17 17 17 16 16 16 16 15 15 15 14 14 14 14 14 14
15 14 14 14 14 14 13 14 15 15 16 18 19 18 18 19 19 18 17 18 19 20 19 19 21 21 20 19 19 20 20 21 21 21 20 20 21 21 20 21 20 19 19 20 21 21 21 21 21 20 19 19 19 19 18 18 18 18 17 17 16 16 16 17 18 18 18 18 18 17 17 17 17 16 16 16 16 15 15 15 14 14 14 14 13 13
13 13 13 14 13 13 13 14 14 15 16 18 18 17 18 19 18 17 17 17 17 17 17 19 21 22 21 19 19 20 21 21 21 21 20 20 21 21 19 19 20 20 20 21 22 22 21 20 21 20 20 20 20 19 18 18 18 17 17 17 16 16 17 18 18 18 18 18 18 17 17 17 17 16 16 16 16 15 15 14 14 14 14 13 13 13
13 12 13 13 13 12 12 13 14 14 16 17 16 16 17 18 17 16 16 16 15 16 17 18 19 21 21 20 20 21 21 20 20 20 21 21 21 22 20 19 20 21 21 20 21 21 20 19 19 20 20 20 19 18 18 18 18 18 17 17 16 17 18 18 18 18 18 18 18 17 17 17 16 16 16 15 15 15 14 14 14 14 14 13 13 13
14 13 13 12 13 13 12 12 13 14 15 15 15 16 17 17 16 15 15 15 15 16 16 17 18 19 19 20 20 20 20 20 20 21 21 21 21 21 21 20 20 20 20 20 19 20 19 18 19 19 20 20 19 19 19 19 19 18 18 17 18 18 18 18 18 18 18 18 18 17 17 17 16 16 16 15 15 15 14 14 13 13 13 13 13 12
14 14 13 13 13 13 13 13 14 14 14 15 15 16 16 16 16 15 15 15 16 16 16 16 17 17 18 19 20 19 19 19 20 20 21 21 21 21 21 20 19 19 19 20 19 19 19 19 19 20 20 20 20 20 20 19 19 18 18 18 19 19 18 18 18 18 18 18 17 17 17 16 16 15 15 15 14 14 14 14 13 13 13 12 12 12
13 13 13 13 13 13 13 14 14 14 14 15 15 15 15 15 15 15 15 15 15 16 16 16 16 17 17 18 19 19 19 19 19 19 20 20 21 22 21 19 19 20 20 20 20 20 20 19 19 18 18 19 19 20 19 19 19 19 18 19 19 19 19 18 18 18 18 17 17 17 17 16 15 15 15 14 14 14 14 13 13 12 12 12 11 11
13 12 12 12 13 13 13 13 13 14 14 14 15 15 15 15 15 15 15 15 15 15 16 16 16 17 17 18 18 19 19 19 19 20 20 20 20 20 20 19 18 19 20 20 20 20 19 19 18 18 18 18 19 19 19 19 19 19 19 19 19 19 19 18 18 17 17 17 17 17 16 15 15 15 14 14 14 14 14 13 13 12 12 12 11 11
13 12 12 13 13 13 14 13 13 13 14 14 14 15 15 15 15 15 15 15 15 15 15 15 15 16 17 18 19 19 19 19 19 19 20 20 19 19 20 20 18 18 20 21 21 20 19 18 18 17 17 18 18 19 19 19 19 19 19 19 19 19 18 18 18 17 17 17 16 16 15 15 15 14 14 14 14 14 13 13 13 12 12 11 11 11
13 12 12 12 12 13 14 14 14 14 14 14 14 14 15 15 15 15 15 15 15 15 15 15 15 15 16 17 18 19 20 20 19 19 20 20 20 20 20 18 17 18 20 21 21 21 20 19 18 17 17 18 19 19 19 19 19 19 19 19 19 19 18 18 18 17 17 17 16 15 15 15 15 14 14 14 14 14 13 13 12 12 12 12 12 12
13 12 13 13 13 13 13 14 15 14 14 15 15 15 15 15 16 16 16 15 15 15 15 15 15 15 16 16 17 18 18 19 20 20 19 19 20 20 18 15 15 18 21 21 20 21 20 20 19 18 18 18 19 19 18 19 19 19 19 19 19 18 18 18 17 17 17 16 16 15 15 15 14 15 14 14 14 13 13 13 13 12 12 13 13 12
13 12 13 13 12 12 13 14 15 14 15 16 16 16 16 16 16 16 16 16 16 15 15 15 15 15 15 15 15 16 16 17 18 19 19 20 20 19 16 14 14 17 20 20 21 21 20 20 20 20 19 19 20 19 18 19 19 19 19 19 18 18 18 18 17 16 16 15 15 15 15 14 14 14 14 14 14 13 13 13 13 12 13 13 13 12
14 13 13 13 13 13 14 14 14 14 14 15 15 16 16 16 16 15 16 17 16 15 15 15 15 15 16 15 14 15 15 16 15 15 18 19 18 17 16 16 16 16 18 19 20 19 20 20 20 20 20 20 20 19 19 19 19 19 18 18 18 18 18 18 16 15 15 15 15 15 15 14 14 14 14 14 14 14 13 12 12 12 13 13 12 12
Height
777 786 793 792 792 787 784 785 784 783 783 782 784 787 790 790 783 777 774 765 761 775 787 788 795 803 803 803 802 801 804 806 809 811 812 812 811 811 810 809 807 805 804 804 805 805 804 804 804 805 807 808 809 810 812 813 814 816 818 820 821 823 824 826 827 828 829 830 832 833 834 835 836 837 838 840 841 842 843 844 844 845 845 846 846 847
780 792 793 786 785 782 779 781 780 780 779 778 782 785 785 785 782 777 774 770 763 774 790 794 800 805 801 801 801 801 805 805 805 808 810 810 810 810 809 809 808 806 805 806 806 805 805 805 804 805 806 806 808 809 811 812 813 815 817 819 820 822 823 824 825 827 828 829 831 832 833 834 836 837 838 839 841 842 843 843 844 844 845 845 846 846
790 793 785 779 779 778 776 776 778 780 779 780 782 786 789 784 782 781 776 772 769 776 790 794 801 806 800 798 800 799 801 802 801 803 805 807 808 808 808 808 807 808 808 807 806 806 805 806 806 805 805 805 807 808 810 812 813 815 816 818 820 821 822 823 824 825 826 828 830 832 833 834 836 836 837 839 840 841 842 843 843 843 844 844 845 845
798 789 777 775 775 775 776 775 778 781 781 783 786 790 794 788 789 792 784 777 774 777 786 787 794 804 802 800 802 800 800 803 803 803 805 806 806 805 804 805 806 806 808 807 806 805 805 806 807 806 805 805 806 807 809 811 813 815 816 818 819 821 822 822 823 825 826 827 829 831 832 833 835 836 837 838 839 840 841 841 842 842 843 843 843 844
791 780 771 773 773 775 778 778 780 785 786 785 788 792 795 790 791 793 788 781 779 781 783 784 795 807 807 808 808 803 802 805 804 805 806 806 808 810 807 804 805 804 804 805 804 803 802 803 804 804 805 805 805 806 807 810 812 814 816 817 819 821 822 823 823 825 826 827 828 830 831 832 834 835 836 837 837 838 839 840 840 841 841 842 842 843
783 774 770 773 774 775 779 781 783 787 790 790 789 788 790 790 788 788 786 785 791 794 785 785 805 815 809 810 809 804 805 808 807 807 807 805 810 819 816 809 807 806 805 803 802 802 801 800 800 801 803 804 804 805 807 809 811 813 815 817 819 820 822 823 824 825 826 826 827 828 829 830 831 833 833 834 835 836 837 838 839 840 840 841 841 842
779 772 771 774 776 777 780 783 783 783 792 798 792 785 786 787 787 789 787 790 801 805 790 785 805 816 810 811 809 805 809 811 809 808 806 804 809 816 815 811 808 807 807 807 806 806 804 802 801 801 802 803 804 805 807 809 811 813 814 816 818 820 821 823 824 825 826 826 827 828 829 830 831 831 832 833 834 835 837 837 838 839 839 840 840 841
778 775 775 776 777 780 783 786 783 780 791 797 787 782 785 784 786 790 791 795 799 798 793 788 797 809 811 811 808 805 811 814 811 809 806 803 806 807 806 804 803 804 805 807 807 807 807 806 804 803 804 805 806 807 809 810 812 813 814 816 817 819 821 822 824 825 826 826 827 828 829 830 831 831 832 833 834 835 836 837 837 838 838 838 839 840
777 778 778 777 780 783 784 784 780 778 786 788 779 780 783 781 784 786 788 796 796 798 804 798 797 810 816 814 810 808 813 817 812 808 804 802 803 803 802 800 800 801 801 802 802 803 804 806 806 805 806 807 808 809 810 811 813 814 815 816 817 819 820 822 823 824 826 827 828 829 829 830 831 831 832 833 834 835 835 835 836 836 836 837 837 838
776 775 773 776 780 781 780 778 775 777 783 780 776 779 781 781 784 785 788 793 796 805 811 803 800 812 821 820 817 815 816 816 810 806 803 801 800 799 799 799 799 801 801 801 801 802 803 805 806 807 808 809 809 810 811 812 813 814 815 816 817 818 820 821 823 824 825 826 827 828 829 829 830 831 832 832 833 833 834 834 834 834 835 835 835 836
774 769 768 772 775 774 773 774 773 775 778 776 778 781 782 785 784 786 792 794 803 815 813 805 801 806 819 823 818 813 807 804 805 805 804 801 800 799 797 797 798 800 801 802 802 803 804 805 806 808 809 810 810 810 812 813 813 814 815 816 817 818 819 821 822 823 824 826 827 828 828 829 830 830 831 831 831 832 833 833 833 833 833 833 834 834
775 772 771 768 766 767 771 774 773 772 775 777 783 787 791 796 794 796 800 801 814 823 813 806 802 804 816 817 809 803 794 793 799 800 799 799 798 797 796 796 797 798 800 800 801 803 803 804 806 807 807 808 809 810 811 812 813 814 814 815 816 817 819 820 821 822 823 825 826 827 827 828 829 829 830 830 830 831 831 831 831 832 832 832 832 832
780 775 773 769 764 766 773 779 779 777 777 780 785 794 805 814 816 818 817 816 822 820 809 806 803 807 812 801 794 794 788 790 792 789 790 792 792 793 794 795 795 796 798 799 800 802 802 803 803 804 805 806 808 809 810 811 812 813 813 814 816 817 818 819 820 822 822 824 825 825 826 827 827 828 828 829 829 830 830 830 830 830 830 830 830 830
789 780 774 773 770 767 772 782 789 787 784 784 787 797 811 823 833 836 832 830 828 816 807 805 803 810 811 794 786 786 782 784 785 783 785 785 786 789 790 792 793 794 796 797 798 799 800 801 802 803 805 805 806 807 808 809 810 811 813 814 815 816 817 819 819 821 821 822 823 824 825 825 826 827 827 828 828 828 829 829 829 829 828 828 828 828
801 795 782 777 775 770 770 776 781 782 783 786 785 791 804 813 824 832 829 828 827 818 811 808 807 812 810 794 784 781 779 781 782 781 782 783 784 785 787 791 793 793 794 795 796 797 798 799 801 802 804 804 805 806 807 808 809 810 811 813 814 815 816 817 818 819 820 820 821 822 823 824 825 825 826 827 827 827 828 828 827 827 827 826 826 826
802 798 779 771 770 768 771 770 770 777 787 788 784 791 800 800 804 815 821 819 820 821 817 810 807 805 798 787 782 782 780 780 783 783 783 785 785 787 790 791 792 792 793 794 796 796 797 799 800 801 802 803 803 804 805 806 807 808 810 812 813 814 815 816 816 817 817 818 819 820 821 822 823 824 825 825 826 826 827 827 826 826 825 825 824 824
800 796 777 772 772 768 770 770 767 776 787 789 789 793 793 789 791 806 818 817 818 826 823 814 809 801 795 790 783 782 781 781 786 787 786 787 787 789 790 789 789 790 791 792 793 793 795 797 798 799 799 800 801 802 803 804 805 806 808 810 811 812 813 814 814 815 815 816 817 818 819 820 821 822 823 824 825 826 826 826 825 825 824 823 823 823
792 794 780 774 778 772 766 769 769 770 777 787 793 788 783 787 791 801 816 821 825 832 825 816 811 805 805 802 788 783 784 784 786 788 787 788 788 789 788 786 786 786 787 789 789 791 793 794 795 796 796 796 797 798 800 801 803 804 806 808 809 810 811 811 812 812 813 813 814 816 817 818 819 820 821 822 823 824 825 825 825 824 823 822 821 821
782 793 786 773 777 774 766 772 778 774 770 778 784 779 783 799 803 805 816 822 828 834 827 817 813 808 807 802 791 786 786 783 784 786 788 789 788 786 785 783 784 784 786 787 787 789 790 791 792 792 793 794 794 796 798 799 801 803 805 806 807 808 809 810 810 810 811 812 813 814 816 817 818 818 819 820 821 823 823 823 823 823 822 821 820 820
778 793 794 778 774 775 773 779 789 786 776 775 779 779 785 795 801 804 810 815 821 829 829 822 817 809 799 791 787 785 783 780 780 781 782 785 786 784 783 782 783 784 785 785 785 786 786 786 788 788 790 792 793 795 796 798 800 801 803 805 806 807 808 809 809 810 810 812 813 814 815 816 817 817 818 819 820 821 822 822 822 821 821 820 819 819
778 790 796 786 778 781 785 785 786 787 784 783 787 790 789 790 795 801 804 807 811 819 826 827 822 808 791 784 783 779 778 777 777 777 777 778 781 781 780 780 780 781 782 782 782 782 783 784 785 786 788 790 791 793 794 796 798 799 801 803 803 805 806 807 808 809 810 811 812 813 814 815 816 817 817 818 819 820 820 820 820 820 820 819 819 818
779 788 792 790 786 787 785 778 775 778 780 784 787 789 790 790 796 807 811 807 804 809 815 820 821 804 783 777 777 773 773 773 773 774 774 775 777 778 777 777 777 778 778 779 779 779 781 782 784 786 787 789 790 791 792 793 795 796 798 799 801 803 804 805 806 808 809 810 811 812 813 815 816 816 817 817 817 818 818 819 819 819 819 818 818 817
773 783 790 791 788 786 781 773 773 774 773 778 781 782 787 790 794 806 813 806 801 804 806 811 816 800 777 771 771 770 771 770 770 772 771 773 774 774 775 775 775 775 775 776 777 777 779 780 782 784 786 787 788 788 789 790 791 793 794 797 799 801 802 803 805 806 808 809 810 811 813 814 815 815 816 816 816 817 817 818 818 818 818 818 817 817
771 782 790 793 789 784 778 772 772 772 772 779 782 780 785 788 787 793 798 797 799 802 803 810 816 798 775 769 769 769 770 769 769 770 770 772 773 771 773 773 773 774 774 774 775 776 778 780 782 784 785 786 787 787 787 788 789 791 792 795 797 799 800 801 804 806 808 808 809 810 811 813 814 814 814 815 815 815 816 817 817 817 817 817 817 817
775 784 791 798 802 797 790 785 781 778 779 785 785 782 783 784 785 789 793 797 802 800 799 808 812 794 776 772 771 769 769 768 767 768 768 770 772 772 772 772 772 773 773 774 775 777 779 780 780 781 782 783 784 784 785 787 789 790 790 792 795 796 798 800 804 807 807 807 808 808 809 811 813 813 813 813 814 814 815 815 816 816 816 816 816 816
775 782 785 796 808 811 807 802 794 787 786 786 785 782 782 783 786 790 794 801 806 802 799 803 801 788 776 773 771 767 767 767 766 767 767 767 769 770 771 772 771 771 771 773 774 776 777 778 778 778 779 780 781 782 784 786 789 790 789 791 792 794 796 799 803 806 807 806 805 806 808 810 811 812 812 812 812 813 813 813 814 814 814 814 815 815
775 780 779 784 793 797 797 791 786 786 788 788 787 784 783 782 783 788 796 802 801 800 800 795 791 788 781 775 773 770 768 767 765 765 766 765 766 767 768 770 770 769 769 771 772 774 775 776 777 777 778 779 780 781 783 784 787 788 788 789 790 792 793 797 801 804 804 803 802 804 806 808 809 810 810 811 811 811 811 812 812 812 812 813 813 813
779 783 781 781 782 782 782 779 778 782 786 787 787 785 783 782 782 789 796 795 793 799 801 791 784 788 783 774 773 772 769 767 765 764 763 762 764 766 767 769 769 769 769 770 771 772 773 774 775 776 777 778 778 780 781 782 784 786 787 788 789 791 792 796 800 801 800 799 800 803 805 806 808 808 809 809 809 809 810 810 811 812 812 812 811 812
782 785 781 782 782 781 782 781 779 782 784 783 784 784 783 782 784 788 790 787 788 794 793 783 780 782 777 770 768 766 764 764 761 759 759 760 762 764 766 766 766 767 769 769 770 770 770 771 771 773 774 775 776 777 778 779 781 783 785 786 787 790 792 796 799 799 797 797 798 801 803 805 806 806 807 807 807 808 809 810 811 811 811 811 810 810
780 785 781 782 784 783 784 783 782 783 785 783 783 782 781 781 784 786 785 783 783 785 782 779 780 777 769 765 763 759 758 759 758 757 758 759 760 761 763 763 763 764 766 766 766 767 767 767 767 769 770 771 773 773 774 776 777 779 781 783 785 788 791 793 795 795 794 795 797 799 801 802 804 804 805 805 806 807 808 809 809 810 810 809 809 808
778 785 782 781 787 787 782 780 782 785 788 789 786 783 781 783 785 785 784 782 783 783 779 778 782 777 765 760 759 756 756 757 758 758 756 756 757 758 759 761 761 761 762 762 763 763 763 764 765 766 767 768 768 769 770 771 773 776 778 780 783 785 786 788 790 790 791 793 795 797 798 800 801 802 803 804 805 806 806 807 808 808 808 808 807 807
778 785 783 783 792 792 784 783 785 786 787 789 787 783 782 784 782 778 776 776 777 777 776 778 782 774 761 757 757 754 753 754 755 755 753 752 753 754 755 756 757 758 758 758 759 760 761 761 762 763 764 764 764 765 767 768 770 773 775 777 779 781 782 784 785 787 789 790 792 794 796 798 799 800 802 803 804 805 805 806 806 806 806 806 806 806
779 784 787 790 796 795 788 786 787 789 792 789 780 775 776 777 775 772 772 770 768 769 772 774 772 762 754 755 756 753 750 750 749 748 748 747 748 750 751 751 752 753 753 753 755 756 757 757 758 759 759 760 761 762 763 765 767 769 771 773 775 777 779 781 782 784 786 788 790 792 794 795 797 798 800 801 802 803 804 804 804 804 804 804 804 804
779 782 787 791 795 798 792 786 790 796 795 782 766 761 764 765 766 768 769 764 761 762 763 761 757 754 753 754 754 750 747 745 744 742 742 742 743 745 746 746 747 747 748 749 750 751 752 753 753 755 755 756 757 758 760 762 765 766 768 771 773 774 776 778 780 782 783 785 788 789 791 792 794 797 799 800 801 802 802 802 802 802 802 802 802 801
780 783 789 791 795 798 794 793 801 800 784 769 760 757 759 760 760 764 764 759 757 758 758 756 754 751 750 750 748 746 743 740 739 739 738 738 739 740 741 742 743 743 744 746 747 747 748 749 750 751 752 753 754 756 758 760 762 764 767 768 770 771 772 774 777 779 780 783 785 786 788 790 793 795 797 798 799 800 800 801 801 801 800 800 800 799
778 784 789 791 795 798 800 801 800 787 771 766 763 758 758 760 760 764 765 759 753 753 754 753 750 746 746 746 744 742 741 739 738 738 736 736 736 736 737 738 738 740 741 741 742 742 743 744 745 747 748 749 752 754 756 757 759 762 764 765 767 768 769 771 773 776 778 780 782 784 786 789 791 793 795 796 797 797 798 798 798 799 799 798 798 798
774 781 786 790 793 797 802 801 792 782 776 771 764 758 758 760 759 760 764 757 747 745 748 748 746 743 743 743 739 738 740 741 741 739 735 734 734 733 734 734 734 736 737 738 739 739 739 740 742 743 745 747 749 751 753 754 757 759 761 763 764 765 766 768 770 773 775 777 780 782 785 787 789 791 792 793 794 794 795 796 796 796 797 797 797 796
767 774 779 786 790 793 799 800 794 791 784 771 761 755 753 757 756 755 761 759 746 741 745 745 744 742 740 740 738 737 740 744 744 740 735 733 732 731 732 733 733 734 736 737 738 738 738 739 740 741 743 745 747 748 749 752 754 756 758 760 761 763 765 766 768 770 773 775 778 780 782 784 786 788 789 790 791 792 792 793 794 794 794 794 794 794
768 773 777 783 789 792 797 798 792 787 778 763 756 754 754 756 752 752 763 764 747 740 743 744 742 740 738 738 736 736 741 746 745 740 735 733 732 731 732 734 734 735 736 736 737 737 738 738 739 740 742 743 745 746 747 750 752 754 756 757 759 761 763 764 766 768 771 773 776 778 780 782 783 785 786 787 788 789 790 790 791 792 792 792 792 792
774 777 779 784 788 790 793 792 784 777 769 758 753 754 753 749 747 758 773 767 749 744 746 743 738 734 733 735 735 736 739 740 738 736 733 732 732 731 731 733 734 735 735 736 736 737 737 737 737 738 740 741 742 743 745 748 750 751 753 755 757 760 761 762 764 766 769 771 773 775 777 779 781 782 783 784 785 786 787 788 789 789 789 789 790 789
781 782 782 783 786 790 791 787 780 772 763 755 753 753 749 748 755 769 773 761 751 750 747 742 737 732 730 733 734 732 731 730 729 730 731 732 731 731 731 732 732 733 734 735 735 735 736 736 736 737 738 739 741 742 744 747 749 750 752 754 756 758 759 761 763 765 767 769 771 773 775 776 778 779 780 782 783 784 785 786 787 788 787 788 788 788
781 784 785 784 786 790 791 788 782 772 760 754 756 754 751 756 766 767 760 755 755 752 746 743 740 733 731 731 730 728 727 727 728 729 730 730 731 731 731 731 731 732 733 733 734 734 735 736 736 737 738 739 741 742 744 746 748 750 751 753 754 756 758 760 762 764 765 767 769 771 773 774 776 777 778 780 781 782 784 785 785 786 786 786 787 786
771 777 782 783 782 786 790 789 783 772 760 755 757 756 755 759 762 758 755 754 753 750 747 745 742 737 734 732 730 729 729 728 728 728 728 729 729 730 731 731 731 732 732 732 734 734 734 735 736 737 738 739 740 742 743 745 747 749 751 752 753 755 757 759 761 762 764 766 768 769 771 772 774 775 777 778 780 781 782 783 784 785 785 785 785 784
771 772 776 777 775 778 783 779 771 765 759 756 757 758 757 756 754 754 756 753 749 748 747 745 743 741 738 734 732 732 731 730 730 729 728 729 729 729 730 730 731 732 732 732 733 733 734 735 735 736 737 738 739 741 742 744 745 747 749 750 751 754 756 757 760 761 763 764 766 767 769 770 771 773 775 776 778 779 780 781 782 783 783 783 783 783
772 772 774 774 772 772 773 769 762 759 757 756 756 756 755 754 752 753 754 753 750 747 745 744 744 742 739 736 734 732 732 731 731 730 729 729 728 728 728 729 729 730 731 732 732 733 733 734 734 736 737 738 739 740 741 743 744 746 747 748 750 752 754 756 758 759 761 762 764 765 767 768 770 771 773 775 776 777 778 779 780 781 781 781 781 781
770 772 773 772 769 768 767 765 764 762 759 756 755 754 754 753 752 751 751 751 750 747 745 745 744 741 738 736 733 732 732 730 729 729 728 728 728 728 727 728 728 729 729 730 731 731 732 733 734 736 737 737 738 739 740 741 743 744 745 746 748 750 752 754 756 757 759 760 762 763 765 766 768 770 771 773 774 775 776 777 777 778 779 779 779 779
768 770 771 769 768 767 765 762 762 762 759 756 754 752 752 751 750 748 748 747 746 745 744 744 744 741 737 733 730 730 729 727 728 728 727 726 727 727 727 727 727 727 727 728 729 730 731 733 734 735 735 736 737 738 739 740 741 742 743 744 746 748 750 752 753 754 756 758 759 761 763 764 766 768 770 771 772 773 774 774 775 776 776 776 776 777
767 769 770 769 769 767 762 757 755 755 754 752 750 749 749 748 747 745 744 743 743 743 743 743 743 741 737 732 730 728 726 725 725 726 726 726 726 726 727 727 725 725 726 727 727 728 730 731 732 733 734 734 735 736 737 738 739 740 741 742 744 745 747 749 750 751 753 755 757 759 760 762 764 766 767 769 769 770 771 771 772 773 773 772 772 773
765 768 767 766 766 765 761 756 753 753 751 747 746 746 745 744 744 742 741 741 741 741 742 742 742 740 737 734 731 729 727 725 723 724 725 725 724 724 725 725 724 724 724 725 725 726 727 729 730 731 732 732 733 734 734 735 736 738 739 740 741 743 745 746 748 749 751 753 754 756 758 760 762 763 765 766 767 768 768 768 769 770 770 770 770 770
765 766 764 765 766 765 760 754 752 752 750 746 744 743 741 741 741 740 739 739 738 739 740 741 740 738 736 734 733 732 730 727 725 725 725 723 722 723 722 722 723 723 722 723 724 724 725 726 727 728 729 730 731 732 732 733 734 735 736 738 739 740 742 744 745 747 749 750 752 754 756 758 759 761 762 763 764 765 766 766 767 767 767 767 768 768
760 760 760 762 761 757 752 750 750 751 750 746 743 741 739 738 739 739 738 736 736 736 738 740 739 737 734 734 734 733 732 730 729 728 726 723 720 720 719 719 720 721 721 721 722 722 723 724 725 726 726 727 728 729 730 731 731 732 734 735 737 738 739 741 743 745 746 748 750 752 753 755 757 759 760 761 762 762 763 764 765 765 765 765 765 766
Wind_Speed
2 2 2 4 5 7 8 7 8 8 5 3 3 1 2 2 4 4 5 7 3 7 3 4 11 14 15 13 13 12 9 9 10 10 9 9 8 7 7 6 7 7 6 4 7 12 13 14 14 13 12 12 12 13 14 14 16 16 16 16 17 17 17 17 17 17 17 16 16 15 15 16 16 15 15 15 14 13 13 13 13 14 14 15 15 14
3 2 6 7 8 9 7 6 4 3 3 2 4 3 5 2 2 3 4 8 5 7 3 6 11 12 14 13 11 12 12 11 12 13 12 11 9 7 8 9 8 6 3 3 7 11 13 14 15 15 14 13 14 14 15 16 17 16 16 17 18 19 18 19 19 18 19 19 18 18 17 17 17 17 17 17 16 15 14 14 14 14 14 14 15 15
1 4 8 8 8 6 3 1 4 4 3 4 4 4 5 3 3 4 6 7 5 5 3 8 11 9 12 13 14 15 13 11 11 11 11 12 11 9 10 10 10 7 4 4 6 10 13 14 14 15 14 14 14 14 15 17 18 17 17 18 19 20 20 20 20 20 20 19 19 18 18 17 17 17 18 18 17 16 16 16 16 16 16 16 15 14
2 5 7 7 3 2 4 6 7 5 4 3 3 4 4 4 3 4 6 6 4 3 4 6 7 6 8 9 11 10 8 6 7 7 7 8 10 10 11 10 10 10 8 7 7 9 13 14 14 14 14 14 14 14 15 17 19 20 20 20 20 21 20 20 20 21 20 19 18 17 17 16 16 16 17 18 18 18 18 18 18 17 16 17 17 15
3 7 4 2 3 5 4 7 7 5 5 2 3 4 4 3 4 2 3 3 4 4 3 5 5 3 5 8 8 5 7 8 8 8 7 6 4 2 5 9 10 10 10 10 10 10 12 14 15 15 13 13 13 14 15 17 19 21 21 21 21 21 20 19 19 19 19 18 17 16 15 15 15 15 16 17 19 19 19 19 19 18 17 16 17 17
3 7 1 3 4 6 5 4 4 4 4 4 4 6 3 1 4 4 4 4 5 5 3 6 5 2 3 8 8 5 8 9 8 9 9 8 4 4 4 7 9 10 10 10 11 10 11 13 15 14 14 14 15 16 16 16 18 19 19 19 19 19 19 18 17 17 17 17 16 15 15 16 15 16 17 18 20 21 21 21 20 19 18 16 16 17
2 3 3 3 3 4 4 3 2 3 5 3 3 3 1 2 5 6 6 5 4 3 4 4 6 2 3 4 8 7 9 8 8 10 10 10 9 6 6 8 10 10 9 8 8 9 11 13 13 14 16 18 18 18 17 17 17 17 17 15 15 15 16 16 15 15 15 16 16 16 16 17 17 17 19 19 20 21 21 21 20 20 20 19 19 18
2 5 6 4 4 4 4 2 3 3 6 1 4 1 3 4 5 5 5 4 2 2 4 4 5 2 1 3 6 8 10 9 9 11 11 11 11 12 13 12 13 13 11 10 9 9 11 14 15 16 19 20 20 19 18 19 18 17 16 14 13 13 13 14 14 15 15 16 17 16 17 19 18 19 19 18 18 19 19 20 20 20 20 21 21 21
1 2 2 3 5 3 1 4 5 3 4 5 5 2 3 3 3 3 5 3 2 3 4 6 3 3 3 4 2 7 9 9 11 13 13 13 12 13 13 14 14 13 13 13 12 12 14 16 17 18 19 20 20 21 20 20 20 18 16 15 14 14 14 14 14 15 16 16 16 16 17 18 18 18 18 17 17 17 18 19 19 19 19 19 21 22
3 3 4 4 1 2 4 6 4 4 1 6 2 3 2 3 3 3 4 3 3 4 2 7 1 2 4 3 3 3 5 8 10 10 10 11 12 13 12 13 13 11 10 10 10 13 16 17 17 17 19 21 22 22 21 20 20 20 19 17 16 16 16 15 15 16 16 16 16 16 17 17 18 17 16 16 16 17 17 18 18 18 19 19 19 20
5 3 3 4 4 5 5 5 2 4 1 3 3 5 4 5 5 3 3 4 4 2 5 6 1 5 1 4 5 4 6 10 9 7 7 8 9 11 11 11 12 10 8 8 8 10 15 17 18 18 19 21 22 23 22 20 19 21 21 19 18 19 18 18 16 16 16 17 17 16 15 16 16 16 15 15 16 17 18 19 19 18 18 18 18 18
6 4 2 3 4 4 3 1 2 4 3 3 4 4 4 5 5 5 5 4 4 2 5 5 2 5 2 4 7 7 8 10 12 11 12 12 12 12 10 10 10 9 9 8 7 8 11 14 17 19 21 22 22 23 23 20 18 20 21 19 18 18 19 19 18 16 16 16 15 14 14 13 12 13 13 14 14 14 16 18 19 19 18 18 18 18
5 3 4 3 1 4 5 2 5 6 6 5 4 5 4 3 4 3 4 2 1 3 5 3 0 2 3 5 7 9 8 10 14 14 15 16 15 13 10 10 9 8 8 8 8 8 8 11 16 19 20 21 22 23 24 22 20 20 21 20 19 18 18 19 18 17 16 15 13 12 12 12 11 12 13 13 13 13 14 16 19 20 19 19 18 18
4 5 5 3 2 2 5 4 1 3 3 3 3 4 3 2 2 2 3 2 2 4 5 2 1 1 4 4 6 8 8 12 15 13 14 16 15 14 12 11 9 8 8 8 8 9 8 12 17 19 19 21 23 24 25 24 23 22 22 21 21 20 19 18 17 16 15 14 12 11 11 11 11 11 12 12 13 13 13 14 15 17 18 18 19 18
1 4 4 1 2 1 3 4 5 4 2 2 4 5 4 3 3 3 3 2 3 4 4 4 2 1 2 4 6 7 6 8 12 11 12 13 13 12 10 9 8 8 8 7 8 9 10 15 19 20 21 22 24 26 26 26 25 24 23 22 22 21 20 19 18 16 15 13 12 11 11 11 11 11 11 11 12 12 13 12 12 12 13 15 16 16
3 4 6 3 2 4 4 3 5 6 2 3 2 5 1 4 5 2 3 5 3 2 3 3 2 4 3 4 5 3 3 2 7 8 9 9 9 7 6 7 8 8 8 7 8 8 10 16 20 21 23 24 26 27 27 26 26 26 25 24 24 23 21 20 19 17 14 12 11 10 10 10 10 10 9 10 10 11 11 11 11 12 12 12 13 14
2 4 7 2 2 2 5 4 3 4 1 2 2 1 4 4 7 2 2 0 3 1 3 1 1 4 3 3 6 6 5 1 4 6 7 8 7 6 7 8 8 8 8 9 9 9 10 16 20 23 25 26 27 28 29 29 28 28 27 25 25 23 21 21 20 17 15 13 12 11 10 10 9 8 8 8 8 9 9 9 10 11 11 12 13 13
4 2 6 1 0 6 4 2 1 1 4 3 0 4 3 2 4 3 0 3 4 0 4 1 3 4 2 2 6 6 5 2 3 6 6 7 7 8 10 10 10 10 10 10 10 10 12 17 21 24 27 30 32 32 32 32 30 29 28 27 26 24 23 23 22 18 16 15 14 13 12 10 9 8 8 8 8 9 9 9 9 10 10 11 11 12
4 1 7 3 3 5 3 5 3 5 1 4 3 3 2 2 1 1 1 0 1 1 3 3 3 3 2 3 4 2 2 4 4 5 5 7 9 10 11 11 11 10 8 9 9 8 11 17 22 25 27 29 31 32 33 33 31 30 29 28 27 26 24 23 22 20 17 15 14 14 13 11 10 9 8 8 8 8 9 9 9 8 9 10 10 10
3 3 5 4 1 1 5 3 1 5 5 3 0 1 1 3 3 2 2 3 2 2 2 3 3 2 5 5 5 6 7 6 6 6 6 9 11 10 9 10 9 8 8 8 9 9 11 17 24 27 28 29 29 30 31 31 31 31 30 29 28 26 24 23 22 19 17 15 15 14 13 13 12 10 9 8 7 8 8 7 7 6 6 7 7 8
2 3 3 5 3 3 2 1 4 4 3 2 1 2 2 1 1 1 1 2 4 3 2 1 2 4 6 4 6 7 7 7 7 6 6 8 10 11 11 10 9 9 9 9 10 10 11 17 23 26 27 29 29 30 31 32 33 32 31 30 28 26 26 25 22 20 18 17 17 15 14 14 13 12 11 9 8 8 8 7 6 5 4 4 5 5
1 2 3 2 2 1 4 6 5 7 5 4 3 4 4 3 1 0 2 2 1 3 4 3 3 6 6 4 6 7 7 7 7 6 6 6 7 9 9 10 11 10 11 11 11 10 10 15 20 22 23 25 27 29 30 32 33 32 31 30 28 26 26 26 24 21 21 20 18 16 14 13 13 13 12 11 9 8 8 7 7 6 5 5 5 4
3 3 3 2 4 4 7 7 5 6 6 5 4 3 4 3 3 4 3 4 2 1 1 2 2 6 6 5 6 6 6 7 6 6 4 3 4 5 4 6 9 10 11 11 10 9 10 15 19 20 21 23 25 28 30 32 32 32 31 30 27 24 24 25 25 23 22 21 19 17 15 14 13 12 11 11 10 9 8 7 7 6 6 6 5 5
1 3 2 2 4 4 5 6 3 2 1 2 2 1 4 3 3 5 5 3 2 3 1 0 3 6 6 5 6 6 6 6 5 6 4 2 3 4 4 5 6 8 9 9 8 7 9 13 15 17 19 21 24 27 29 30 30 31 31 29 28 26 24 24 24 24 23 21 19 18 17 16 14 13 12 12 10 9 8 7 7 7 7 7 6 6
1 1 3 1 4 5 6 6 5 5 3 1 2 2 1 1 0 1 0 2 1 4 4 3 5 5 5 5 2 4 6 6 6 5 6 6 5 5 4 5 5 6 7 7 7 6 8 10 13 17 20 23 25 26 27 27 27 28 30 31 30 30 27 25 23 23 24 23 21 21 20 17 16 16 15 13 11 10 10 9 9 8 8 8 9 8
2 3 4 3 2 3 3 1 2 2 1 0 2 2 2 3 2 1 0 1 2 4 4 4 5 6 6 6 3 2 6 7 6 5 4 5 6 6 6 6 6 6 7 9 9 8 8 10 12 17 21 23 25 25 25 27 28 28 29 30 30 30 29 26 24 26 28 26 25 24 21 18 18 18 16 15 14 13 12 11 11 11 10 10 10 9
1 1 3 6 6 6 6 6 5 3 2 2 4 4 4 4 2 2 2 1 3 3 3 5 5 4 6 6 5 5 5 6 6 5 5 5 6 7 7 7 7 7 7 8 8 8 8 8 10 14 19 21 23 23 24 27 28 27 27 28 29 29 28 25 26 30 31 28 27 25 22 21 21 20 18 17 15 13 12 12 13 13 12 12 12 11
2 2 2 5 7 7 8 8 6 4 4 5 6 5 5 5 3 1 3 5 4 2 5 7 5 4 6 6 6 7 6 5 6 6 7 7 6 6 6 6 7 7 6 6 7 8 9 9 9 12 17 20 21 23 24 25 26 27 27 28 30 29 25 23 27 31 30 28 27 26 24 24 23 21 19 16 14 12 12 13 13 12 12 12 12 11
3 3 4 3 4 6 5 6 6 4 4 5 6 6 6 6 6 5 7 8 6 5 8 8 7 8 8 7 8 9 8 7 8 9 8 6 6 6 6 7 8 8 7 7 8 9 10 10 9 11 17 20 21 23 24 25 26 27 28 29 29 26 24 26 29 29 28 28 29 28 27 26 24 21 18 15 13 13 13 12 12 12 12 12 11 11
3 3 3 2 2 4 4 5 5 3 3 3 5 6 7 8 8 7 7 9 8 9 9 8 9 11 10 8 9 9 9 9 8 8 6 5 6 7 8 9 9 9 9 10 11 10 10 11 11 13 17 19 21 24 25 25 26 27 27 29 28 25 26 30 31 29 29 30 30 29 28 26 23 20 17 15 14 15 13 13 12 11 11 12 13 13
0 3 2 3 2 5 5 5 4 2 2 3 5 6 7 6 5 6 7 7 7 9 9 8 9 10 8 7 8 8 7 7 6 8 8 8 8 9 9 10 10 10 10 11 11 11 11 11 11 12 15 19 24 26 25 26 26 26 27 28 29 29 29 30 30 29 30 30 29 27 26 23 21 19 16 15 15 16 15 14 13 12 11 12 13 13
0 2 1 4 2 5 4 4 5 5 3 5 7 9 8 6 5 6 6 6 6 7 7 7 7 7 8 6 7 8 8 7 8 9 9 8 8 9 11 11 10 10 11 11 11 11 11 11 11 12 15 20 24 25 25 26 26 26 27 29 31 31 28 27 29 31 32 31 29 26 24 23 22 19 16 15 15 16 16 15 15 14 12 12 13 13
3 2 1 1 1 4 3 2 4 6 7 7 8 8 10 9 9 8 6 6 8 7 6 6 7 7 7 6 6 8 8 8 8 8 8 8 9 9 10 11 10 10 11 11 11 11 12 12 14 17 21 23 24 26 29 28 27 27 29 30 30 30 27 27 31 33 33 31 29 27 24 23 21 19 18 17 16 16 17 17 16 16 13 12 13 12
3 4 2 2 1 4 4 4 5 6 9 7 5 7 10 10 9 8 7 8 9 7 5 5 6 7 6 6 8 9 9 8 8 8 8 7 7 7 8 10 10 11 11 10 10 11 11 13 17 22 25 26 28 30 31 29 28 29 29 28 28 28 27 29 33 35 33 31 29 26 23 21 21 20 20 19 16 16 18 18 18 16 13 12 12 12
4 4 2 2 2 3 2 5 2 9 8 3 2 4 6 6 6 7 7 8 9 8 6 6 7 8 8 8 9 10 11 10 9 9 9 8 8 8 8 9 10 10 10 9 10 10 11 13 18 21 24 27 30 30 28 28 29 28 27 26 27 27 28 30 33 34 33 30 27 24 22 22 22 22 21 19 17 18 19 19 18 16 13 12 12 13
5 4 3 2 2 1 1 2 5 6 5 6 9 6 3 3 3 3 6 8 8 8 7 7 8 10 9 8 9 9 10 9 6 6 7 7 8 8 8 9 9 9 9 9 10 11 14 18 22 24 26 28 28 27 27 28 29 27 25 25 26 27 28 31 33 33 31 29 26 23 23 25 25 23 21 19 19 20 20 19 17 14 12 12 12 13
7 5 3 2 3 2 2 4 4 6 8 7 7 6 3 3 4 4 4 7 7 6 6 5 8 11 9 8 9 8 5 3 4 5 6 6 6 8 9 8 8 8 9 10 10 12 15 20 22 25 27 26 25 26 28 29 28 25 24 24 25 26 28 30 32 31 30 28 26 25 26 28 27 24 22 21 21 21 20 18 16 14 13 13 13 13
8 6 5 5 3 3 3 4 4 6 7 4 5 6 5 6 8 5 4 6 7 6 5 5 8 12 10 8 8 4 2 2 4 5 6 5 2 4 5 4 6 9 10 12 12 13 15 16 17 20 23 24 25 28 29 29 28 25 23 24 26 27 29 30 30 30 30 29 28 28 29 29 28 25 24 23 23 22 20 19 17 15 14 13 14 14
4 2 3 3 3 4 5 6 6 6 6 4 6 6 5 5 4 2 2 4 7 5 4 5 7 10 9 8 7 3 5 3 6 5 5 4 2 6 5 4 5 7 10 12 13 13 16 17 16 16 20 22 24 27 29 29 27 24 24 26 27 28 28 29 31 32 33 32 30 29 30 30 28 26 25 25 24 22 21 20 18 15 14 13 14 14
4 3 2 4 5 5 5 6 5 4 5 5 4 4 4 3 4 3 2 5 5 6 6 5 6 8 6 7 5 5 5 6 5 5 6 5 4 6 6 6 6 6 8 8 5 5 11 16 16 16 19 20 21 24 28 28 26 24 25 26 27 27 28 32 34 34 33 31 29 29 30 29 28 27 26 26 24 23 21 19 17 15 14 13 13 13
2 1 1 4 5 5 6 6 5 3 5 5 3 3 2 4 5 2 5 5 5 9 9 6 7 7 4 4 4 4 6 6 6 6 6 4 4 5 4 5 5 4 4 4 2 3 9 15 17 17 18 18 19 21 25 26 23 22 23 25 25 27 30 33 33 32 32 30 29 30 31 29 28 27 27 26 24 22 20 18 16 14 13 13 13 14
2 1 0 2 3 3 3 4 5 4 4 2 1 1 1 2 1 5 5 3 6 8 10 9 8 6 3 3 4 5 4 4 6 6 5 5 6 5 4 6 6 3 2 1 3 7 12 14 15 16 16 17 19 20 22 22 21 19 20 23 26 29 32 32 31 31 31 29 29 30 30 29 28 27 26 25 24 21 19 17 15 13 13 13 14 15
3 3 2 3 3 2 3 4 4 4 2 1 2 1 1 2 5 4 3 4 5 5 7 9 8 6 5 3 1 1 3 5 6 7 7 6 7 6 5 6 5 1 1 4 6 11 15 15 15 18 19 19 21 21 21 21 20 18 19 21 25 29 32 31 30 30 29 27 27 28 28 28 28 27 26 24 22 19 17 16 14 14 14 14 14 16
1 1 2 3 2 2 4 4 3 2 2 1 1 2 3 3 2 1 2 4 5 4 5 5 6 6 3 4 3 3 1 1 4 5 6 6 6 6 5 5 5 3 3 5 8 13 17 17 18 20 21 21 22 21 21 22 21 20 19 20 20 23 28 30 30 28 26 25 25 25 25 26 27 27 25 23 20 17 16 15 15 15 15 15 14 15
2 2 2 2 2 2 3 4 3 2 3 3 2 3 4 4 3 2 3 4 4 4 3 4 6 8 5 2 3 2 2 2 4 3 3 5 6 7 7 7 6 5 5 5 7 13 18 19 18 19 19 20 23 23 23 24 23 22 22 22 20 20 24 28 28 26 24 24 24 24 24 26 27 26 24 21 19 17 15 16 17 17 16 14 14 15
2 3 3 2 1 2 2 3 3 3 4 4 3 5 5 4 4 4 3 3 4 5 4 5 7 9 8 4 3 2 2 4 3 4 4 4 5 5 6 7 8 8 8 6 6 10 16 18 17 17 17 19 22 24 25 26 25 24 24 24 21 20 23 26 26 25 24 24 24 24 25 27 27 25 22 20 18 16 15 16 17 18 17 15 15 16
1 3 3 1 1 1 2 2 3 4 7 7 5 4 5 5 5 5 4 4 4 4 5 6 7 9 9 5 3 3 5 4 3 5 5 4 5 6 6 7 8 10 12 10 8 9 13 16 16 16 17 20 23 25 26 27 26 26 26 24 22 23 26 27 27 26 26 25 25 25 27 28 27 25 22 20 18 17 17 16 17 18 18 18 18 17
1 2 0 2 3 2 3 5 5 6 8 7 6 5 5 5 6 5 4 5 4 3 5 6 7 7 8 6 3 5 5 4 3 5 6 4 5 6 6 7 9 11 12 12 11 11 13 15 16 17 18 20 24 26 28 28 28 28 27 25 25 27 28 28 27 27 27 26 26 27 29 29 28 25 23 21 20 19 19 18 18 20 21 19 19 19
2 2 1 2 3 2 4 6 7 8 8 6 6 6 5 5 6 6 5 5 4 2 3 8 9 6 5 7 6 4 5 6 4 5 6 5 5 5 6 9 11 13 14 14 14 14 15 15 16 17 19 21 24 27 28 29 29 30 29 28 29 30 30 28 28 28 27 27 28 29 30 29 28 25 23 22 22 21 20 19 20 22 21 19 19 19
2 2 2 2 2 4 5 6 5 5 6 6 5 6 6 6 6 5 6 6 5 3 1 5 10 7 5 7 7 6 6 7 6 5 6 6 5 6 8 10 13 14 15 16 16 15 16 16 16 17 18 20 22 25 28 30 31 31 30 30 30 31 30 28 27 27 27 28 29 30 31 29 27 25 23 23 23 23 22 21 21 21 21 20 20 20
4 4 4 4 5 6 7 7 6 4 5 6 7 7 7 6 5 6 8 8 6 6 6 6 8 7 5 7 7 6 5 7 8 8 7 7 7 7 9 11 13 15 17 18 17 16 17 17 16 16 17 17 17 19 23 27 29 31 31 30 31 31 30 28 27 26 27 29 30 30 30 29 27 25 25 24 24 24 25 23 22 22 22 21 22 22
Wind_Direction
115 98 263 230 235 252 263 247 227 240 234 169 100 78 273 301 331 310 322 332 77 94 48 135 139 149 161 172 171 167 169 166 166 167 171 177 178 183 185 192 200 210 220 212 213 221 222 213 202 198 193 185 181 185 190 190 193 200 203 202 200 199 201 202 202 202 204 203 201 204 204 204 206 207 205 208 216 221 219 219 224 228 230 232 234 232
87 169 242 222 218 234 241 234 231 272 306 31 69 14 331 350 317 305 1 356 36 88 50 114 132 154 165 167 167 164 172 180 176 173 176 177 177 184 181 184 197 207 193 182 218 222 217 210 200 194 190 181 175 177 184 187 190 200 206 205 199 197 200 205 207 207 209 210 210 211 211 211 212 214 214 215 220 224 223 218 219 223 225 227 231 235
329 234 251 239 225 235 240 54 36 16 1 17 52 33 335 306 285 321 6 358 28 85 137 142 138 168 174 167 170 175 181 183 177 176 176 173 175 182 182 184 190 188 179 192 221 229 223 217 207 198 192 184 177 173 179 184 189 196 204 206 203 201 203 208 212 215 216 216 218 220 221 221 220 222 223 226 227 228 229 226 222 226 229 230 230 234
251 249 245 238 221 50 11 12 30 29 19 31 35 12 319 313 8 354 344 347 16 71 154 140 125 154 169 169 174 176 169 156 163 166 168 180 184 185 180 179 185 181 182 197 210 225 225 220 213 204 195 189 184 178 180 185 190 195 200 203 204 206 209 212 215 218 219 220 222 224 227 229 228 228 229 230 231 230 233 233 230 231 235 238 233 232
239 245 217 163 64 66 44 7 27 31 353 355 47 12 316 332 48 23 308 345 17 25 86 81 64 94 164 178 174 153 141 148 160 154 159 182 189 246 195 173 182 187 184 191 199 213 220 217 210 201 195 197 196 190 188 190 194 197 200 202 205 208 212 216 216 215 216 218 219 222 226 229 230 231 232 231 230 230 232 234 233 231 236 239 233 232
257 251 209 81 46 49 60 18 15 38 2 349 15 4 330 354 47 38 10 31 38 2 4 69 67 339 248 181 172 155 147 152 162 162 169 169 128 352 277 188 182 189 189 193 197 204 216 217 212 204 201 202 201 199 197 198 199 201 203 204 206 211 215 217 215 210 212 215 217 220 221 223 225 227 227 227 228 229 230 232 232 231 233 234 229 231
274 301 25 90 93 42 38 7 333 59 62 22 323 332 356 54 45 50 45 50 62 307 308 77 109 262 299 181 180 162 144 149 161 170 182 174 151 163 213 200 185 186 189 194 200 205 212 214 210 207 207 202 199 200 202 204 205 204 204 204 206 212 216 216 212 210 213 218 222 224 224 224 224 225 227 229 231 232 233 235 237 237 237 236 234 233
300 358 13 45 69 55 37 340 283 74 79 228 252 359 40 33 31 66 83 84 147 266 327 26 94 120 307 244 196 150 138 155 167 174 187 185 171 177 190 191 185 183 182 183 192 202 208 210 207 205 206 202 199 199 198 200 203 203 206 208 209 213 216 217 214 213 216 219 223 227 229 229 230 233 235 237 238 239 240 242 243 244 243 242 241 238
248 14 12 60 48 41 136 228 235 102 78 250 244 63 53 45 36 64 80 92 142 63 345 318 37 94 278 282 163 137 143 168 184 186 188 187 183 186 189 189 186 185 184 184 188 194 201 206 206 203 202 201 200 198 196 197 200 202 206 208 211 215 218 220 217 216 218 220 224 227 229 231 235 241 245 248 251 250 250 250 249 249 249 249 247 243
241 211 185 129 92 245 217 218 210 100 107 260 264 63 44 45 46 48 66 81 58 49 285 274 333 109 277 268 148 154 173 186 197 196 193 191 190 190 188 188 188 188 191 191 189 193 199 202 203 200 197 197 197 196 194 198 202 203 202 205 210 212 213 216 216 216 219 222 227 230 231 235 240 245 250 254 256 255 255 253 250 250 251 253 252 248
271 268 193 157 192 198 194 213 188 98 181 281 21 36 13 10 23 35 51 80 60 360 263 267 232 121 309 261 185 190 206 190 189 201 209 207 201 198 191 187 187 186 190 192 187 192 196 198 198 194 195 198 197 194 192 195 200 198 197 200 205 210 211 211 212 213 217 219 223 229 234 238 241 245 250 254 255 254 252 248 246 248 251 253 255 253
316 326 282 238 208 150 121 270 332 28 33 48 56 45 23 352 2 17 359 34 74 272 261 269 261 117 117 256 209 215 225 189 178 193 201 202 204 203 196 189 188 186 186 185 182 187 190 193 195 193 195 197 195 193 191 192 191 189 192 195 197 203 205 206 208 210 211 213 218 228 236 239 243 246 248 253 257 257 251 246 243 245 248 251 254 253
322 279 273 294 264 107 93 26 342 355 19 55 68 56 48 355 355 6 330 348 127 248 244 223 52 106 210 240 214 220 229 195 190 196 194 196 200 200 197 192 190 185 183 182 181 186 189 189 193 193 192 190 189 190 191 193 192 191 194 197 198 201 200 202 206 206 206 209 215 224 233 240 245 246 249 252 255 257 256 250 246 245 247 249 250 251
318 304 325 354 1 67 106 112 333 319 15 70 94 93 99 81 27 306 286 308 281 271 262 245 334 313 279 275 217 215 224 201 196 198 193 195 197 198 199 193 189 189 184 183 183 188 191 189 192 193 188 186 189 192 195 197 198 198 197 200 206 206 201 199 200 200 203 210 216 222 228 235 242 245 248 249 249 254 257 254 250 248 249 250 251 251
187 308 311 215 238 237 141 158 171 161 116 170 158 125 130 146 154 235 241 220 255 276 290 308 314 202 245 273 224 224 252 213 196 198 195 197 200 197 198 191 188 194 190 188 191 193 192 188 190 191 187 188 191 194 198 199 199 201 200 203 208 207 201 201 201 201 204 208 212 216 222 230 237 241 243 245 250 252 253 252 249 246 246 247 249 251
152 245 257 244 218 181 180 203 157 113 51 263 142 90 121 183 157 187 207 181 188 285 300 310 265 212 214 265 271 296 324 205 192 197 190 202 209 189 189 199 197 200 196 189 194 200 193 187 190 189 187 189 192 194 197 199 199 201 203 206 209 208 205 205 204 203 201 197 199 207 217 222 223 228 236 245 251 251 250 251 249 247 246 246 248 250
128 261 272 322 5 214 201 212 170 128 154 285 42 108 232 176 131 130 273 275 81 67 281 281 252 290 327 318 315 353 21 67 190 196 191 198 195 175 196 211 207 204 198 192 195 197 189 186 190 190 187 188 190 193 196 198 200 202 205 207 210 211 210 208 207 203 197 193 197 205 207 205 205 212 226 237 241 243 245 246 245 246 245 244 247 251
139 267 279 185 93 278 238 149 39 103 136 115 194 227 231 65 84 105 216 353 42 148 278 284 221 277 342 311 312 353 14 331 211 203 207 197 181 187 206 211 210 207 199 196 196 193 189 188 190 191 190 190 190 192 195 198 200 203 205 208 211 213 212 209 208 204 202 201 202 204 202 203 206 209 217 226 232 239 245 246 246 248 246 244 245 248
119 52 288 240 171 284 336 75 12 323 62 122 194 211 104 71 339 19 132 311 353 234 282 299 258 239 209 235 280 298 275 267 226 199 202 200 195 200 208 213 214 206 198 196 193 193 192 190 192 193 194 194 192 193 195 197 199 202 206 208 212 216 213 208 206 205 206 210 208 207 207 209 210 208 211 217 225 237 244 247 249 251 252 250 249 250
110 112 276 287 129 9 7 56 208 293 329 17 277 302 47 149 175 200 179 155 166 216 256 296 309 276 231 216 194 213 232 233 220 206 194 197 203 207 208 214 215 202 197 200 194 196 195 193 195 195 194 195 194 194 195 197 199 203 208 210 214 218 213 206 205 205 208 213 212 207 207 209 209 208 209 208 217 229 233 237 240 246 251 249 251 254
83 125 229 295 350 60 4 241 180 198 265 344 354 283 285 220 168 229 211 136 142 174 196 241 285 266 252 210 179 211 229 217 213 213 207 201 202 208 208 206 207 200 200 203 200 198 196 196 197 196 195 194 193 194 195 196 200 203 207 210 212 212 208 205 205 206 208 210 207 203 203 208 212 214 215 214 215 220 225 231 233 236 240 238 245 252
144 155 183 276 317 205 233 233 188 179 190 163 168 211 206 196 151 139 279 289 134 158 175 188 253 263 255 204 192 215 220 217 214 202 214 225 208 214 221 209 201 198 200 203 204 201 194 193 193 191 191 191 190 192 193 196 199 201 204 206 206 205 206 206 205 204 205 203 198 199 203 210 215 218 218 215 210 213 219 223 223 228 233 235 243 245
155 124 127 220 241 226 240 249 223 205 196 166 179 200 166 146 125 143 225 262 273 254 184 140 242 264 258 214 207 219 213 215 212 193 211 251 199 188 204 203 199 200 202 200 199 200 194 189 188 186 185 188 190 191 193 196 197 199 202 201 200 201 203 205 204 203 203 200 197 201 208 214 215 210 207 207 209 214 216 216 220 228 236 239 239 229
80 97 116 262 295 303 293 294 288 265 141 130 267 224 148 162 163 166 186 191 219 259 253 349 269 269 274 248 214 209 213 221 218 191 174 181 192 175 153 164 187 197 199 197 194 194 186 181 181 182 186 191 194 195 196 197 198 200 200 199 201 202 202 203 206 206 204 201 201 203 206 210 209 203 202 206 210 215 215 216 221 225 231 234 226 215
268 177 116 54 333 331 333 342 339 343 30 122 269 299 151 259 355 155 123 83 250 240 192 198 257 254 272 292 264 185 196 217 230 209 171 162 188 200 173 164 178 182 183 188 187 178 174 177 182 187 192 195 198 201 199 200 204 206 203 203 206 207 207 209 213 217 215 207 201 200 199 201 204 202 202 203 204 208 211 213 218 221 226 226 222 220
195 187 131 132 207 251 266 279 265 283 345 210 293 329 326 321 325 286 39 83 260 248 180 182 244 263 287 310 310 212 196 204 225 226 195 176 183 189 185 179 181 179 180 183 181 176 179 186 191 194 196 198 201 203 200 200 207 210 208 208 209 210 212 213 218 225 223 210 199 196 193 196 200 200 199 199 199 202 207 213 219 221 219 218 221 225
119 183 154 161 189 209 204 214 217 174 144 271 283 290 285 278 248 159 117 188 214 212 214 220 224 264 292 284 269 264 230 213 223 224 216 208 193 187 187 185 185 189 192 185 180 181 185 191 198 199 200 201 203 205 203 202 206 209 210 209 210 212 214 215 220 223 217 205 196 192 191 195 198 198 198 198 199 204 212 218 220 218 215 217 221 225
74 300 243 180 201 212 196 208 222 189 188 219 231 254 268 268 266 243 240 233 196 181 267 252 211 222 260 251 251 268 259 239 239 235 230 222 203 193 185 181 189 200 197 182 180 187 190 195 201 202 202 203 203 205 207 206 206 209 212 211 210 212 215 216 217 213 205 196 191 189 192 194 194 195 197 197 201 209 214 214 216 217 217 218 219 220
118 262 258 199 235 248 216 225 240 228 219 202 195 217 240 248 243 234 243 236 201 211 251 241 216 232 247 233 225 233 230 226 227 227 227 215 195 188 177 175 191 202 196 189 194 198 198 199 199 201 204 204 203 204 207 208 207 208 212 213 211 213 216 215 211 199 188 185 185 186 189 189 189 193 196 196 200 203 205 210 215 219 218 217 216 216
128 251 247 187 297 295 272 265 265 256 251 227 212 220 230 240 233 220 237 240 223 233 246 236 234 246 249 236 226 224 218 218 227 237 237 217 199 193 184 186 197 203 199 197 200 201 202 203 203 203 203 202 203 205 206 207 208 208 210 212 210 212 215 214 207 192 180 179 181 182 184 185 189 193 192 194 198 197 201 209 209 207 211 215 215 214
306 258 239 96 12 302 286 282 285 277 240 234 248 248 245 258 259 241 241 239 235 247 253 249 251 256 254 239 232 235 229 218 229 242 239 230 215 198 191 197 203 205 205 204 202 204 206 206 207 207 204 203 203 205 206 207 208 209 211 212 211 213 214 211 205 194 185 184 183 182 183 185 188 190 189 193 198 198 204 208 201 196 205 213 213 213
153 259 354 57 353 279 280 302 313 329 314 259 253 256 255 257 255 245 233 214 212 230 245 253 256 258 259 245 233 242 240 232 237 234 227 227 216 197 197 206 208 208 211 210 204 203 207 210 210 210 211 210 206 205 206 206 205 206 209 211 213 215 215 209 200 193 190 189 187 185 185 186 186 187 188 193 197 201 207 206 196 194 201 206 206 211
145 127 66 80 262 271 279 326 344 344 317 276 248 235 234 231 230 240 250 235 218 207 214 234 237 244 253 242 232 242 239 236 239 227 215 219 213 199 201 209 211 212 214 212 206 204 207 210 210 210 214 214 210 209 210 207 203 205 207 209 212 215 213 204 195 190 189 188 186 184 183 183 184 186 189 193 197 201 202 196 192 195 198 197 200 214
152 127 152 167 175 266 291 30 19 310 281 259 218 198 208 216 218 223 238 242 230 214 208 230 246 253 252 233 226 234 233 228 227 221 218 216 206 201 207 212 215 218 217 213 208 207 208 211 212 213 214 215 214 214 214 210 208 210 210 210 214 216 211 201 193 189 188 186 183 183 183 184 186 188 191 193 196 196 192 189 190 194 195 196 206 223
157 141 161 137 144 251 323 48 344 269 258 251 277 233 223 232 225 222 242 249 241 240 240 249 260 255 242 233 229 231 236 236 229 227 228 219 202 196 204 214 218 218 219 218 213 214 213 209 209 212 215 216 216 215 213 212 213 213 212 212 216 216 210 201 195 191 188 185 183 184 187 189 189 188 189 191 192 189 187 190 193 196 200 211 225 235
169 155 146 139 168 216 47 149 224 262 292 307 307 300 276 273 250 240 278 272 248 232 222 229 252 251 239 236 235 235 241 244 247 249 241 230 216 202 201 211 209 203 206 209 205 207 210 208 208 211 215 217 216 213 211 212 213 211 211 214 218 217 210 199 192 189 186 184 183 188 193 192 189 188 187 187 186 185 187 193 197 201 208 219 230 238
168 156 149 185 201 173 182 215 246 304 307 291 287 288 275 278 263 227 256 274 258 227 206 221 263 267 255 240 241 244 243 244 271 278 269 257 235 215 212 211 197 183 183 188 184 184 195 205 210 214 218 218 216 213 212 212 211 208 208 211 213 209 200 191 187 185 185 184 187 193 195 193 190 188 186 184 184 186 190 195 198 202 211 220 227 235
181 174 176 194 200 168 198 242 259 281 276 225 213 243 261 284 273 224 201 270 275 251 222 223 261 273 266 247 243 236 133 169 248 267 284 293 257 185 192 189 172 168 169 172 168 164 173 188 199 211 217 216 215 216 215 213 211 207 203 202 200 194 187 183 183 183 185 188 192 195 194 192 190 188 186 186 187 190 193 196 199 206 214 223 230 236
150 104 143 179 206 173 189 235 240 246 257 226 205 229 259 296 294 148 145 274 276 273 254 230 254 275 265 243 233 166 128 195 244 254 262 262 141 127 130 122 139 162 169 171 170 170 176 180 183 197 207 209 214 218 215 212 208 203 199 196 191 186 182 182 183 185 188 193 196 196 193 192 191 190 189 190 192 195 197 198 201 208 216 223 230 237
84 57 128 184 216 189 183 230 247 235 248 245 222 228 265 336 42 83 234 260 274 303 296 261 278 300 273 234 212 151 161 207 221 221 230 218 138 116 124 124 131 154 167 174 184 195 191 183 177 181 189 199 213 218 213 209 205 200 197 192 186 184 185 186 188 191 195 197 198 196 194 193 194 194 194 195 197 199 201 201 203 210 218 223 227 236
77 46 161 194 212 198 192 225 256 260 248 243 219 219 263 21 51 149 219 243 300 322 323 307 305 318 295 226 189 179 213 216 186 185 207 189 118 96 99 105 114 140 161 175 216 220 195 186 180 180 187 199 210 210 206 202 197 193 192 187 184 187 191 193 196 198 199 199 198 196 196 196 197 197 198 200 200 200 201 203 208 216 223 225 226 232
160 128 76 192 195 190 191 227 265 271 252 239 220 218 79 68 194 221 228 269 304 320 327 319 315 324 314 222 183 182 201 187 162 166 180 161 133 122 97 77 70 51 38 98 179 185 180 177 175 177 186 195 195 192 191 190 187 185 185 186 191 196 198 200 201 199 197 197 197 197 198 198 198 198 199 199 199 199 199 203 211 221 226 227 229 233
188 159 190 188 171 150 171 218 256 262 267 356 3 354 43 182 208 224 275 305 308 317 322 323 325 332 345 12 11 223 167 163 168 165 164 158 145 143 134 108 100 97 102 121 166 180 172 167 171 176 180 183 184 183 184 188 192 191 188 192 199 203 204 203 199 195 194 194 195 197 198 197 197 196 196 196 196 198 200 203 211 220 225 227 230 233
244 173 198 199 179 152 174 209 234 217 215 274 124 181 233 236 208 198 274 293 305 307 310 323 318 307 332 55 37 357 15 240 226 186 170 176 168 161 162 149 142 153 150 151 176 185 179 174 178 183 184 182 185 188 192 195 197 195 195 201 205 202 202 201 196 193 194 193 191 193 194 195 194 194 194 192 192 197 203 207 213 219 223 226 228 231
214 167 182 203 213 194 201 236 260 224 217 222 165 177 232 264 276 258 258 276 286 286 299 320 309 295 278 181 131 85 58 315 278 241 204 208 195 180 181 187 179 160 150 162 179 188 190 188 185 187 190 189 189 193 196 198 197 197 203 212 213 205 199 196 193 192 192 191 190 191 192 191 191 190 190 191 193 200 206 210 214 217 220 223 227 231
190 161 162 179 251 265 243 251 288 301 283 264 222 199 210 230 243 240 236 249 266 286 307 309 297 288 273 234 148 126 231 236 242 247 232 224 226 211 190 195 192 167 153 156 170 187 195 195 191 191 194 196 196 196 198 200 200 204 211 215 215 209 200 194 192 191 190 189 190 190 189 188 186 186 189 193 200 207 211 212 214 215 217 221 225 230
223 156 157 176 218 267 246 216 221 257 267 270 266 235 207 211 228 228 214 219 251 287 304 300 294 288 279 255 160 188 241 239 248 265 243 207 225 234 209 200 197 180 173 174 172 180 188 190 193 197 198 201 202 202 201 203 206 212 215 213 208 203 196 192 192 191 189 189 188 188 188 187 185 186 191 196 201 207 211 212 214 213 213 215 220 226
187 121 100 236 204 205 247 253 256 263 264 266 269 251 219 217 232 236 224 222 239 273 300 307 304 296 292 285 236 214 244 258 263 270 262 228 217 221 216 213 204 193 192 189 177 176 186 191 196 201 203 206 208 207 207 207 210 215 216 210 202 196 193 193 194 192 191 190 189 187 188 188 187 189 194 198 202 206 209 210 211 213 216 219 223 225
147 138 177 219 224 267 286 278 283 290 290 284 269 252 234 225 230 240 247 243 235 237 341 321 304 293 301 303 292 274 281 281 263 247 248 243 225 212 218 225 214 200 198 198 190 186 193 201 206 207 210 213 213 210 210 211 213 216 216 210 201 196 194 195 195 193 193 191 189 188 188 189 192 194 197 201 205 209 214 215 215 217 223 231 234 231
166 202 195 200 252 270 260 249 253 270 283 283 268 251 242 231 224 235 254 256 238 186 161 292 288 291 314 316 320 336 325 308 300 277 250 237 222 208 211 220 220 213 207 204 201 198 198 203 210 213 217 222 221 215 214 216 217 217 216 212 204 198 197 197 194 192 191 189 187 188 189 191 194 197 201 206 209 213 218 220 220 222 229 238 242 239
203 203 184 197 234 243 242 242 239 239 258 265 257 249 249 243 232 236 244 247 236 199 182 226 262 281 308 309 310 324 322 310 310 302 282 261 245 231 219 215 215 218 218 212 207 207 208 207 208 215 221 225 224 221 221 223 223 221 219 214 207 202 202 201 195 190 189 188 189 190 191 193 196 200 206 211 214 217 218 219 221 225 232 240 245 243